User: anonymous   Login
Location: Unspecified
(0.0000°N, 0.0000°E)
Time: 06:29:13
(UTC+00:00)
Language:

AEHF 2 (USA 235) - Orbit

View from above orbital plane
View from above orbital plane
View from above satellite
View from above satellite

Ground track
Ground track

The orbit data is extracted from the following two-line orbital elements,

1 38254U 12019A   18264.21995067 0.00000000  00000-0  00000-0 0    08
2 38254   1.4527  11.5079 0003003 108.8744 251.1817  1.00270000    09
Epoch (UTC): 21 September 2018 05:16:43
Eccentricity: 0.0003003
inclination: 1.4527°
perigee height: 35774 km
apogee height: 35799 km
right ascension of ascending node: 11.5079°
argument of perigee: 108.8744°
revolutions per day: 1.00270000
mean anomaly at epoch: 251.1817°
orbit number at epoch: 0

The dashed part of the orbit path shows where the satellite is in the earth's shadow,  

DLR